This demonstration page uses our WeatherBlox Daily Observations layout. Learn more.

Left ArrowRight Arrow

Hourly Observations for January 7, 2018

Temp ( °F °C ) Dew Point ( °F °C ) Humidity (%) Winds ( mph kmh ) Pressure ( in mb ) Visibility ( mi km ) Precip ( " mm )
12:56 am 00:56 Clear 24 -4.4 18 -7.8 77 77 S 9 15 29.96 1015 10 16 0.00 0.00
1:56 am 01:56 Clear 22 -5.6 17 -8.3 82 82 S 7 11 29.93 1014 10 16 0.00 0.00
2:56 am 02:56 Mostly Cloudy 23 -5 19 -7.2 85 85 SW 6 9 29.92 1013 10 16 0.00 0.00
3:56 am 03:56 Clear 25 -3.9 20 -6.7 81 81 SSW 8 13 29.91 1013 10 16 0.00 0.00
4:56 am 04:56 Mostly Clear 25 -3.9 20 -6.7 81 81 SW 5 7 29.91 1013 10 16 0.00 0.00
5:56 am 05:56 Cloudy 26 -3.3 20 -6.7 78 78 W 3 6 29.92 1013 10 16 0.00 0.00
6:56 am 06:56 Mostly Cloudy 26 -3.3 20 -6.7 78 78 SW 5 7 29.92 1013 10 16 0.00 0.00
7:56 am 07:56 Cloudy 27 -2.8 20 -6.7 75 75 WNW 3 6 29.93 1014 10 16 0.00 0.00
8:56 am 08:56 Cloudy 29 -1.7 24 -4.4 82 82 NW 6 9 29.95 1014 10 16 0.00 0.00
9:56 am 09:56 Cloudy with Light Wintry Mix 32 0 27 -2.8 82 82 WNW 6 9 29.96 1015 10 16 0.00 0.03
10:56 am 10:56 Cloudy 35 1.7 31 -0.6 85 85 NNW 7 11 29.98 1015 10 16 0.00 0.03
11:56 am 11:56 Mostly Cloudy 40 4.4 34 1.1 79 79 NNW 9 15 29.96 1015 10 16 0.00 0.03
12:56 pm 12:56 Sunny 43 6.1 34 1.1 71 71 NNW 8 13 29.94 1014 10 16 0.00 0.00
1:56 pm 13:56 Sunny 45 7.2 35 1.7 68 68 NW 10 17 29.93 1014 10 16 0.00 0.00
2:56 pm 14:56 Mostly Cloudy 45 7.2 35 1.7 68 68 NNW 12 19 29.94 1014 10 16 0.00 0.00
3:56 pm 15:56 Sunny 44 6.7 34 1.1 68 68 NNW 15 24 29.96 1015 10 16 0.00 0.00
4:56 pm 16:56 Sunny 42 5.6 33 0.6 71 71 NNW 12 19 29.99 1016 10 16 0.00 0.00
5:56 pm 17:56 Clear 38 3.3 32 0 79 79 NNW 9 15 30.02 1017 10 16 0.00 0.00
6:56 pm 18:56 Clear 33 0.6 30 -1.1 89 89 NW 8 13 30.06 1018 10 16 0.00 0.00
7:56 pm 19:56 Clear 32 0 30 -1.1 92 92 WNW 8 13 30.09 1019 10 16 0.00 0.00
8:56 pm 20:56 Clear 33 0.6 31 -0.6 92 92 NW 9 15 30.10 1019 10 16 0.00 0.00
9:56 pm 21:56 Clear 31 -0.6 29 -1.7 92 92 NW 7 11 30.09 1019 10 16 0.00 0.00
10:56 pm 22:56 Clear 30 -1.1 28 -2.2 92 92 NW 9 15 30.09 1019 10 16 0.00 0.00
11:56 pm 23:56 Clear 28 -2.2 27 -2.8 96 96 NW 10 17 30.11 1020 10 16 0.00 0.00

Powered by AerisWeather